This is the latest recevied weather packets stored in our database for station/object OK1FPA-13. If no packets are shown the sender has not sent any weather packets the latest 10 day(s).
| Time | Temp. | Humidity | Pressure | Rain* | Wind** | Luminosity | Snow |
|---|---|---|---|---|---|---|---|
| 1777815274 | 26.11° C | 24% | 1013.4 hPa | - | - | - | - |
| 1777814676 | 26.11° C | 24% | 1013.7 hPa | - | - | - | - |
| 1777814071 | 26.11° C | 24% | 1013.7 hPa | - | - | - | - |
| 1777813471 | 26.11° C | 25% | 1013.8 hPa | - | - | - | - |
| 1777812871 | 26.11° C | 24% | 1014 hPa | - | - | - | - |
| 1777812272 | 26.11° C | 24% | 1014.1 hPa | - | - | - | - |
| 1777811671 | 26.67° C | 25% | 1014.3 hPa | - | - | - | - |
| 1777811071 | 26.67° C | 24% | 1014.4 hPa | - | - | - | - |
| 1777810471 | 25.56° C | 27% | 1014.5 hPa | - | - | - | - |
| 1777809871 | 26.11° C | 26% | 1014.7 hPa | - | - | - | - |
| 1777809271 | 26.11° C | 26% | 1014.8 hPa | - | - | - | - |
| 1777808671 | 26.11° C | 26% | 1014.9 hPa | - | - | - | - |
| 1777808073 | 25.56° C | 25% | 1015 hPa | - | - | - | - |
| 1777807472 | 26.67° C | 24% | 1015.1 hPa | - | - | - | - |
| 1777806872 | 26.11° C | 25% | 1015.2 hPa | - | - | - | - |
| 1777806272 | 25.56° C | 27% | 1015.4 hPa | - | - | - | - |
| 1777805672 | 25° C | 25% | 1015.6 hPa | - | - | - | - |
| 1777805072 | 25° C | 26% | 1015.7 hPa | - | - | - | - |
| 1777804472 | 25° C | 26% | 1015.8 hPa | - | - | - | - |
| 1777803872 | 25° C | 26% | 1015.8 hPa | - | - | - | - |
| 1777803272 | 25.56° C | 26% | 1016 hPa | - | - | - | - |
| 1777802672 | 25° C | 28% | 1016 hPa | - | - | - | - |
| 1777802073 | 23.89° C | 29% | 1016.2 hPa | - | - | - | - |
| 1777801472 | 24.44° C | 29% | 1016.3 hPa | - | - | - | - |
| 1777800872 | 23.89° C | 28% | 1016.4 hPa | - | - | - | - |
* Rain since midnight (hover to see other rain measurements)
** Current wind speed in m/s (hover to see current wind gust speed)